Regional Weather Roundup
Issued by NWS Newport/Morehead, NC

Current Version | Previous Version | Graphics & Text | Print | Product List | Glossary Off
Versions: 1 2 3 4 5 6 7 8 9 10 11 12 13 14 15 16 17 18 19 20 21 22 23 24 25 26 27 28 29 30 31 32 33 34 35 36 37 38 39 40 41 42 43 44 45 46 47 48 49 50

000
ASUS42 KMHX 260225
RWRMHX
WEATHER ROUNDUP FOR EASTERN NORTH CAROLINA
NATIONAL WEATHER SERVICE NEWPORT/MOREHEAD CITY NC
1000 PM EDT WED APR 25 2018

NOTE: "FAIR" INDICATES FEW OR NO CLOUDS BELOW 12,000 FEET
WITH NO SIGNIFICANT WEATHER AND/OR OBSTRUCTIONS TO VISIBILITY

NCZ015>017-031-032-045>047-102-103-260300-
NORTH COAST

CITY           SKY/WX    TMP DP  RH WIND       PRES   REMARKS
EDENTON        FAIR      64  62  91 W3        29.77S
ELIZABETH CITY FAIR      62  61  96 SW3       29.75R
KITTY HAWK     FAIR      61  60  98 CALM      29.74F
MANTEO         MOCLDY    62  60  94 W5        29.76S

$$

NCZ045>047-081-094-103-104-260300-
CENTRAL COAST

CITY           SKY/WX    TMP DP  RH WIND       PRES   REMARKS
FRISCO         FAIR      67  61  81 W8        29.76R

$$

NCZ095-097-098-100-101-260300-
SOUTHERN COAST

CITY           SKY/WX    TMP DP  RH WIND       PRES   REMARKS
BEAUFORT       FAIR      64  57  78 W7        29.79R
CEDAR ISLAND   NOT AVBL
JACKSONVILLE   FAIR      62  57  83 SW5       29.80R
PINEY ISLAND   NOT AVBL
WILMINGTON     FAIR      61  56  83 CALM      29.82R


$$

NCZ011>013-027>030-043-044-078>080-089-090>093-098-260300-
COASTAL PLAIN

CITY           SKY/WX    TMP DP  RH WIND       PRES   REMARKS
AHOSKIE        FAIR      58  58 100 CALM      29.78R FOG
CLINTON        FAIR      59  59 100 CALM      29.82R
ELIZABETHTOWN  NOT AVBL
GOLDSBORO      FAIR      60  57  89 CALM      29.78R
GREENVILLE     FAIR      59  59 100 CALM      29.82R
HAVELOCK       NOT AVBL
KENANSVILLE    FAIR      57  55  94 CALM      29.82R
KINSTON        FAIR      58  57  98 CALM      29.81R
NEW BERN       FAIR      61  57  87 W3        29.80R
RICHLANDS      FAIR      59  57  93 S3        29.81R
ROCKY MOUNT    FAIR      57  56  96 CALM      29.79R
WASHINGTON     FAIR      62  57  86 CALM      29.79R
WHITEVILLE     FAIR      61  58  90 CALM      29.82R

$$

AMZ130-135-150-152-154-156-158-170-250-252-270-ANZ085-086-088-633-658-670-260300-
MARINE OBSERVATIONS

STATION/POSITION TIME  TEMP    WIND        PRES    WAVE   SWELL
                       AIR SEA DIR/SP/G            HT/PER HT/PER
                 (UTC) (F)     (DEG/KT/KT) (MB)    (FT/S) (FT/S)
CHESAPEAKE LIGHT NOT AVBL
64 E VA BEACH    0150   54 51  230/  8/  8 1007.1    9/10   8/10
DUCK             0200   62 52  220/  5/  6 1006.9
2 E DUCK         0200      53                N/A     5/10   2/11
OREGON INLET     0200          280/  3/  4   N/A
13E OREGON INLT  0148      54                N/A     7/ 9   7/ 9
HATTERAS CG      0200   66 67  240/  7/ 10 1007.7
DIAMOND BUOY     0210   68 70  260/ 16/ 19 1008.2
CAPE LOOKOUT     0200          260/  8/  9 1009.2
BEAUFORT LAB     0200   64 64  270/  2/  5 1008.9
30 SE NEW RVR IN 0208   66 66  270/ 10/ 12 1007.4
30 SE NEW RVR IN 0200      66                N/A     6/ 9   2/11
27 SE WRIGHTSVLE 0208   65 66  240/ 12/ 16 1010.0
5 SE WRIGHTSVLE  0208   65 64  230/  6/  8 1008.5
225 S CAPE HAT   0210   73 73  220/ 17/ 21 1011.3
41 SE CHARLESTON 0210      69  230/ 12/ 16 1010.9

$$




USA.gov is the U.S. government's official web portal to all federal, state and local government web resources and services.